Location: Piotrkow Trybunalski
(51.4000°N, 19.6830°E)
Time: 06:32:52
(UTC+02:00)

STRAND 1 - Pass Details

Date: 26 February 2024
Orbit: 764 x 779 km, 98.4° (Epoch: 24 April)

Event Time Altitude Azimuth Distance (km) Brightness Sun altitude
Rises 18:46:17 0° 12° (NNE) 3,272 ? -14.9°
Reaches altitude 10° 18:48:37 10° 10° (N) 2,338 ? -15.3°
Maximum altitude 18:53:43 66° 289° (WNW) 845 ? -16.1°
Drops below altitude 10° 18:58:47 10° 208° (SSW) 2,312 ? -16.8°
Sets 19:01:05 0° 206° (SSW) 3,233 ? -17.2°
